Location: Gleizolles
(44.4833°N, 6.7667°E)
Time: 16:26:46
(UTC+00:00)

Altair - Pass Details

Date: 25 June 2024
Orbit: 1502 x 1681 km, 47.2° (Epoch: 13 July)

Event Time Altitude Azimuth Distance (km) Brightness Sun altitude
Rises 21:38:13 0° 176° (S) 4,624 - -17.0°
Reaches altitude 10° 21:43:04 10° 154° (SSE) 3,644 - -17.4°
Maximum altitude 21:47:30 15° 124° (SE) 3,299 - -17.8°
Exits shadow 21:48:37 14° 116° (ESE) 3,327 8.8 -17.9°
Drops below altitude 10° 21:51:57 10° 94° (E) 3,671 9.2 -18.1°
Sets 21:56:49 0° 73° (ENE) 4,681 10.0 -18.5°
